Grosse Ile, MI

6:35 AM EDT on May 26, 2017 (GMT -0400)
Grosse Ile Municipal

Weather History for KONZ - March, 2013

Change the Weather History Date:

Sunday, March 3, 2013

  Actual Average (KDTW) Record (KDTW)
Temperature  
Mean Temperature 26 °F -  
Max Temperature 30 °F 39 °F 67 °F (1974)
Min Temperature 21 °F 24 °F -4 °F (2003)
Degree Days  
Heating Degree Days 40    
Moisture  
Dew Point 16 °F    
Average Humidity 67    
Maximum Humidity 80    
Minimum Humidity 47    
Precipitation  
Precipitation 0.00 in - - ()
Sea Level Pressure  
Sea Level Pressure 30.01 in    
Wind  
Wind Speed 8 mph (NW)    
Max Wind Speed 15 mph    
Max Gust Speed 21 mph    
Visibility 10 miles    
Events Snow    
Averages and records for this station are not official NWS values.
T = Trace of Precipitation, MM = Missing Value Source: NWS Daily Summary

Daily Weather History Graph

Daily Weather History Graph

Search for Another Location

Airport or City:

Trip Planner

Search our weather history database for the weather conditions in past years. The results will help you decide how hot, cold, wet, or windy it might be!

Date:

Astronomy

Mar. 03, 2013 Rise Set
Actual Time 7:04 AM EST 6:25 PM EST
Civil Twilight 6:36 AM EST 6:53 PM EST
Nautical Twilight 6:03 AM EST 7:25 PM EST
Astronomical Twilight 5:31 AM EST 7:58 PM EST
Moon 12:09 AM EST (3/3) 10:11 AM EST (3/3)
Length of Visible Light 12h 17m
Length of Day
11h 21m
Waning Gibbous, 64% of the Moon is Illuminated
Mar 3
Waning Gibbous
Mar 4
Last Quarter
Mar 11
New
Mar 19
First Quarter
Mar 27
Full

Hourly Weather History & Observations

Time (EST) Temp. Windchill Dew Point Humidity Pressure Visibility Wind Dir Wind Speed Gust Speed Precip Events Conditions
12:14 AM 24.8 °F 17.9 °F 15.8 °F 69% 30.03 in 10.0 mi NW 5.8 mph - N/A   Overcast
12:34 AM 24.8 °F 20.5 °F 15.8 °F 69% 30.03 in 10.0 mi NNW 3.5 mph - N/A   Overcast
12:54 AM 24.8 °F 16.9 °F 15.8 °F 69% 30.03 in 10.0 mi WNW 6.9 mph - N/A   Overcast
1:14 AM 24.8 °F 16.1 °F 19.4 °F 80% 30.03 in 7.0 mi WNW 8.1 mph - N/A Snow Light Snow
1:34 AM 24.8 °F 15.3 °F 17.6 °F 74% 30.03 in 7.0 mi WNW 9.2 mph - N/A Snow Light Snow
1:54 AM 24.8 °F 15.3 °F 17.6 °F 74% 30.03 in 10.0 mi WNW 9.2 mph - N/A Snow Light Snow
2:14 AM 24.8 °F 16.1 °F 17.6 °F 74% 30.03 in 7.0 mi WNW 8.1 mph - N/A Snow Light Snow
2:34 AM 24.8 °F 16.1 °F 17.6 °F 74% 30.02 in 10.0 mi WNW 8.1 mph - N/A Snow Light Snow
2:54 AM 24.8 °F 16.1 °F 17.6 °F 74% 30.01 in 10.0 mi WNW 8.1 mph - N/A Snow Light Snow
3:14 AM 24.8 °F 15.3 °F 17.6 °F 74% 30.01 in 10.0 mi WNW 9.2 mph - N/A Snow Light Snow
3:34 AM 24.8 °F 16.9 °F 17.6 °F 74% 30.00 in 10.0 mi WNW 6.9 mph - N/A Snow Light Snow
3:55 AM 23.0 °F 14.7 °F 17.6 °F 80% 30.00 in 10.0 mi WNW 6.9 mph - N/A Snow Light Snow
4:14 AM 23.0 °F 14.7 °F 17.6 °F 80% 30.00 in 10.0 mi WNW 6.9 mph - N/A Snow Light Snow
4:34 AM 23.0 °F 13.1 °F 17.6 °F 80% 30.00 in 10.0 mi WNW 9.2 mph - N/A Snow Light Snow
4:54 AM 23.0 °F 15.8 °F 17.6 °F 80% 30.00 in 10.0 mi West 5.8 mph - N/A Snow Light Snow
5:14 AM 23.0 °F 13.9 °F 17.6 °F 80% 30.00 in 10.0 mi WNW 8.1 mph - N/A   Overcast
5:34 AM 23.0 °F 14.7 °F 17.6 °F 80% 30.01 in 10.0 mi WNW 6.9 mph - N/A Snow Light Snow
5:54 AM 23.0 °F 14.7 °F 17.6 °F 80% 30.01 in 7.0 mi WNW 6.9 mph - N/A Snow Light Snow
6:14 AM 23.0 °F 15.8 °F 17.6 °F 80% 30.01 in 7.0 mi WNW 5.8 mph - N/A Snow Light Snow
6:34 AM 23.0 °F 15.8 °F 17.6 °F 80% 30.00 in 7.0 mi WNW 5.8 mph - N/A Snow Light Snow
7:14 AM 23.0 °F 12.4 °F 17.6 °F 80% 30.01 in 10.0 mi WNW 10.4 mph - N/A Snow Light Snow
7:54 AM 21.2 °F 9.5 °F 15.8 °F 80% 30.02 in 10.0 mi NW 11.5 mph - N/A Snow Light Snow
8:14 AM 21.2 °F 9.5 °F 15.8 °F 80% 30.02 in 10.0 mi WNW 11.5 mph - N/A Snow Light Snow
8:34 AM 21.2 °F 8.9 °F 15.8 °F 80% 30.03 in 10.0 mi NW 12.7 mph - N/A Snow Light Snow
8:54 AM 21.2 °F 9.5 °F 14.0 °F 74% 30.03 in 10.0 mi NW 11.5 mph 18.4 mph N/A Snow Light Snow
9:14 AM 21.2 °F 9.5 °F 14.0 °F 74% 30.02 in 10.0 mi NW 11.5 mph - N/A Snow Light Snow
9:33 AM 21.2 °F 9.5 °F 14.0 °F 74% 30.02 in 10.0 mi NW 11.5 mph - N/A   Overcast
10:14 AM 24.8 °F 13.4 °F 14.0 °F 64% 30.02 in 10.0 mi NW 12.7 mph - N/A   Mostly Cloudy
10:34 AM 24.8 °F 13.4 °F 15.8 °F 69% 30.02 in 10.0 mi NW 12.7 mph - N/A   Scattered Clouds
10:54 AM 26.6 °F 15.2 °F 15.8 °F 64% 30.02 in 10.0 mi NW 13.8 mph 19.6 mph N/A   Clear
11:15 AM 26.6 °F 16.2 °F 15.8 °F 64% 30.01 in 10.0 mi NW 11.5 mph 17.3 mph N/A   Scattered Clouds
11:34 AM 26.6 °F 16.2 °F 15.8 °F 64% 30.01 in 10.0 mi NW 11.5 mph 16.1 mph N/A   Mostly Cloudy
11:54 AM 26.6 °F 16.2 °F 15.8 °F 64% 30.01 in 10.0 mi NW 11.5 mph 18.4 mph N/A   Mostly Cloudy
12:14 PM 28.4 °F 17.5 °F 15.8 °F 59% 30.01 in 10.0 mi WNW 13.8 mph 18.4 mph N/A   Mostly Cloudy
12:34 PM 28.4 °F 18.0 °F 14.0 °F 55% 30.01 in 10.0 mi NW 12.7 mph 19.6 mph N/A   Overcast
12:54 PM 28.4 °F 18.5 °F 14.0 °F 55% 30.00 in 10.0 mi NW 11.5 mph 16.1 mph N/A   Mostly Cloudy
1:14 PM 28.4 °F 21.2 °F 14.0 °F 55% 29.99 in 10.0 mi West 6.9 mph 16.1 mph N/A   Mostly Cloudy
1:34 PM 30.2 °F 24.3 °F 14.0 °F 51% 29.98 in 10.0 mi NW 5.8 mph - N/A   Mostly Cloudy
1:54 PM 28.4 °F 20.4 °F 14.0 °F 55% 29.98 in 10.0 mi WNW 8.1 mph - N/A   Scattered Clouds
2:14 PM 30.2 °F 20.8 °F 12.2 °F 47% 29.98 in 10.0 mi West 11.5 mph - N/A   Scattered Clouds
2:34 PM 30.2 °F 21.3 °F 14.0 °F 51% 29.97 in 10.0 mi WNW 10.4 mph - N/A   Scattered Clouds
2:54 PM 30.2 °F 20.8 °F 12.2 °F 47% 29.97 in 10.0 mi WNW 11.5 mph - N/A   Scattered Clouds
3:14 PM 30.2 °F 22.6 °F 12.2 °F 47% 29.97 in 10.0 mi NW 8.1 mph - N/A   Scattered Clouds
3:34 PM 30.2 °F 20.2 °F 12.2 °F 47% 29.97 in 10.0 mi NW 12.7 mph 19.6 mph N/A   Scattered Clouds
3:54 PM 30.2 °F 20.2 °F 12.2 °F 47% 29.97 in 10.0 mi WNW 12.7 mph 17.3 mph N/A   Scattered Clouds
4:14 PM 30.2 °F 20.8 °F 12.2 °F 47% 29.97 in 10.0 mi NW 11.5 mph - N/A   Scattered Clouds
4:34 PM 30.2 °F 21.9 °F 12.2 °F 47% 29.97 in 10.0 mi NW 9.2 mph - N/A   Mostly Cloudy
4:54 PM 30.2 °F 19.3 °F 12.2 °F 47% 29.98 in 10.0 mi WNW 15.0 mph 20.7 mph N/A   Overcast
5:14 PM 30.2 °F 20.2 °F 14.0 °F 51% 29.98 in 10.0 mi WNW 12.7 mph 16.1 mph N/A   Overcast
5:35 PM 30.2 °F 20.2 °F 15.8 °F 55% 29.99 in 10.0 mi NW 12.7 mph 17.3 mph N/A   Overcast
5:54 PM 28.4 °F 19.7 °F 15.8 °F 59% 29.99 in 10.0 mi NNW 9.2 mph - N/A   Overcast
6:14 PM 28.4 °F 19.1 °F 15.8 °F 59% 30.00 in 10.0 mi NW 10.4 mph - N/A   Overcast
6:34 PM 28.4 °F 18.5 °F 15.8 °F 59% 30.01 in 10.0 mi NNW 11.5 mph - N/A   Overcast
6:54 PM 26.6 °F 16.8 °F 15.8 °F 64% 30.01 in 10.0 mi North 10.4 mph - N/A   Overcast
7:34 PM 26.6 °F 20.0 °F 15.8 °F 64% 30.03 in 10.0 mi North 5.8 mph - N/A   Clear
7:54 PM 26.6 °F 22.6 °F 15.8 °F 64% 30.03 in 10.0 mi North 3.5 mph - N/A   Clear
8:14 PM 24.8 °F - 15.8 °F 69% 30.03 in 10.0 mi Calm Calm - N/A   Clear
8:34 PM 24.8 °F - 15.8 °F 69% 30.03 in 10.0 mi Calm Calm - N/A   Clear
8:54 PM 24.8 °F - 15.8 °F 69% 30.03 in 10.0 mi Calm Calm - N/A   Clear
9:14 PM 24.8 °F - 15.8 °F 69% 30.04 in 10.0 mi Calm Calm - N/A   Clear
9:34 PM 24.8 °F - 17.6 °F 74% 30.04 in 10.0 mi Calm Calm - N/A   Clear
9:54 PM 23.0 °F - 15.8 °F 74% 30.04 in 10.0 mi Calm Calm - N/A   Clear
10:14 PM 23.0 °F - 15.8 °F 74% 30.03 in 10.0 mi Calm Calm - N/A   Clear
10:34 PM 23.0 °F - 15.8 °F 74% 30.03 in 10.0 mi Calm Calm - N/A   Clear
10:54 PM 24.8 °F - 15.8 °F 69% 30.03 in 10.0 mi Calm Calm - N/A   Clear
11:14 PM 23.0 °F - 15.8 °F 74% 30.03 in 10.0 mi Calm Calm - N/A   Clear
11:34 PM 24.8 °F - 15.8 °F 69% 30.03 in 10.0 mi Calm Calm - N/A   Clear
11:53 PM 23.0 °F - 15.8 °F 74% 30.03 in 10.0 mi Calm Calm - N/A   Clear